AAL7112 KPHX-KLAS

Flight info

Callsign AAL7112
Flight time 0h 45m
Altitude 28000
Route ZEPER2 RRSTA ELLDA RKSTR4
Aircraft A321/M-SDE3FGHIRWY/LB1

Departure

Time 2026-05-07 15:15
Airport Phoenix Sky Harbor International Airport (KPHX)

Arrival

Time 2026-05-07 16:00
Airport Harry Reid International Airport (KLAS)
Time Latitude Longitude Altitude Speed Heading
2026-05-07 14:36 33.43723 -111.99877 1131 ft 0 kts 270°
2026-05-07 15:00 33.43723 -111.99864 1134 ft 4 kts 277°
2026-05-07 15:00 33.43715 -111.99837 1131 ft 4 kts 323°
2026-05-07 15:00 33.43699 -111.99829 1131 ft 0 kts 360°
2026-05-07 15:03 33.43712 -111.99829 1135 ft 7 kts 360°
2026-05-07 15:03 33.43784 -111.99829 1140 ft 11 kts
2026-05-07 15:03 33.43854 -111.99829 1133 ft 9 kts 359°
2026-05-07 15:03 33.43899 -111.99863 1136 ft 7 kts 295°
2026-05-07 15:04 33.43905 -111.99916 1131 ft 6 kts 273°
2026-05-07 15:04 33.43906 -111.99958 1135 ft 5 kts 271°
2026-05-07 15:04 33.43906 -111.99991 1131 ft 3 kts 268°
2026-05-07 15:04 33.43905 -112.00014 1131 ft 3 kts 268°
2026-05-07 15:05 33.43905 -112.00035 1132 ft 2 kts 269°
2026-05-07 15:05 33.43904 -112.00054 1131 ft 2 kts 269°
2026-05-07 15:05 33.43904 -112.00072 1131 ft 2 kts 269°
2026-05-07 15:05 33.43904 -112.00088 1131 ft 2 kts 270°
2026-05-07 15:06 33.43904 -112.00108 1133 ft 3 kts 270°
2026-05-07 15:06 33.43904 -112.00137 1131 ft 6 kts 271°
2026-05-07 15:06 33.43905 -112.00228 1131 ft 15 kts 269°
2026-05-07 15:06 33.43905 -112.00346 1131 ft 14 kts 270°
2026-05-07 15:07 33.43903 -112.00455 1134 ft 13 kts 267°
2026-05-07 15:07 33.43901 -112.00555 1134 ft 11 kts 271°
2026-05-07 15:07 33.43901 -112.00645 1134 ft 10 kts 270°
2026-05-07 15:07 33.43902 -112.00726 1131 ft 9 kts 270°
2026-05-07 15:08 33.43901 -112.00797 1134 ft 8 kts 270°
2026-05-07 15:08 33.43901 -112.00870 1134 ft 11 kts 269°
2026-05-07 15:08 33.43902 -112.00982 1133 ft 14 kts 270°
2026-05-07 15:08 33.43902 -112.01092 1131 ft 13 kts 270°
2026-05-07 15:09 33.43902 -112.01191 1131 ft 12 kts 270°
2026-05-07 15:09 33.43902 -112.01286 1131 ft 11 kts 269°
2026-05-07 15:09 33.43902 -112.01373 1131 ft 10 kts 273°
2026-05-07 15:09 33.43935 -112.01434 1133 ft 8 kts 333°
2026-05-07 15:10 33.43972 -112.01477 1130 ft 7 kts 289°
2026-05-07 15:10 33.43975 -112.01526 1133 ft 6 kts 271°
2026-05-07 15:10 33.43975 -112.01619 1133 ft 16 kts 270°
2026-05-07 15:10 33.43976 -112.01756 1130 ft 16 kts 269°
2026-05-07 15:11 33.43976 -112.01887 1129 ft 16 kts 270°
2026-05-07 15:11 33.43976 -112.02013 1134 ft 15 kts 270°
2026-05-07 15:11 33.43976 -112.02129 1129 ft 13 kts 270°
2026-05-07 15:11 33.43976 -112.02236 1119 ft 12 kts 270°
2026-05-07 15:12 33.43976 -112.02336 1126 ft 12 kts 270°
2026-05-07 15:12 33.43976 -112.02430 1128 ft 11 kts 270°
2026-05-07 15:12 33.43976 -112.02513 1126 ft 9 kts 270°
2026-05-07 15:12 33.43977 -112.02582 1123 ft 7 kts 270°
2026-05-07 15:13 33.43983 -112.02636 1128 ft 6 kts 293°
2026-05-07 15:13 33.44014 -112.02666 1127 ft 6 kts 341°
2026-05-07 15:13 33.44071 -112.02648 1116 ft 12 kts 49°
2026-05-07 15:13 33.44086 -112.02558 1119 ft 12 kts 89°
2026-05-07 15:14 33.44086 -112.02304 1125 ft 63 kts 90°
2026-05-07 15:14 33.44086 -112.01526 1132 ft 121 kts 90°
2026-05-07 15:14 33.44084 -112.00317 1132 ft 167 kts 90°
2026-05-07 15:14 33.44078 -111.98877 1605 ft 171 kts 90°
2026-05-07 15:15 33.44053 -111.97462 2264 ft 170 kts 92°
2026-05-07 15:15 33.44001 -111.96009 2772 ft 179 kts 92°
2026-05-07 15:15 33.43944 -111.94530 3307 ft 176 kts 92°
2026-05-07 15:15 33.43873 -111.93039 3561 ft 191 kts 92°
2026-05-07 15:16 33.43786 -111.91358 3696 ft 212 kts 92°
2026-05-07 15:16 33.43680 -111.89525 3844 ft 231 kts 93°
2026-05-07 15:16 33.43607 -111.87502 3956 ft 254 kts 82°
2026-05-07 15:16 33.44344 -111.85568 4380 ft 264 kts 45°
2026-05-07 15:17 33.45939 -111.84497 4999 ft 269 kts 11°
2026-05-07 15:17 33.47821 -111.84413 5646 ft 273 kts 356°
2026-05-07 15:17 33.49728 -111.84591 6319 ft 276 kts 356°
2026-05-07 15:17 33.51651 -111.84772 6998 ft 278 kts 356°
2026-05-07 15:18 33.53593 -111.84957 7676 ft 281 kts 357°
2026-05-07 15:18 33.55555 -111.85084 8310 ft 283 kts
2026-05-07 15:18 33.57526 -111.84943 8870 ft 286 kts
2026-05-07 15:18 33.59497 -111.84660 9034 ft 285 kts
2026-05-07 15:19 33.61455 -111.84329 9059 ft 284 kts 10°
2026-05-07 15:19 33.63405 -111.83996 9044 ft 283 kts 10°
2026-05-07 15:19 33.65370 -111.83779 9042 ft 284 kts
2026-05-07 15:19 33.67357 -111.84039 9450 ft 289 kts 354°
2026-05-07 15:20 33.69325 -111.84362 10071 ft 290 kts 354°
2026-05-07 15:20 33.71365 -111.84821 10300 ft 310 kts 345°
2026-05-07 15:20 33.73375 -111.85966 10449 ft 332 kts 328°
2026-05-07 15:20 33.75117 -111.87895 10659 ft 350 kts 309°
2026-05-07 15:21 33.76568 -111.90283 11147 ft 356 kts 307°
2026-05-07 15:21 33.78033 -111.92706 11707 ft 360 kts 307°
2026-05-07 15:21 33.79516 -111.95147 12292 ft 363 kts 307°
2026-05-07 15:21 33.81017 -111.97603 12875 ft 366 kts 308°
2026-05-07 15:22 33.82534 -112.00079 13439 ft 369 kts 308°
2026-05-07 15:22 33.84064 -112.02577 14006 ft 372 kts 308°
2026-05-07 15:22 33.85602 -112.05097 14546 ft 375 kts 308°
2026-05-07 15:22 33.87147 -112.07637 15082 ft 377 kts 308°
2026-05-07 15:23 33.88697 -112.10192 15595 ft 380 kts 308°
2026-05-07 15:23 33.90260 -112.12776 16102 ft 383 kts 308°
2026-05-07 15:23 33.91836 -112.15379 16576 ft 386 kts 308°
2026-05-07 15:23 33.93419 -112.17992 17093 ft 388 kts 308°
2026-05-07 15:24 33.95013 -112.20620 17555 ft 390 kts 308°
2026-05-07 15:24 33.96619 -112.23270 17987 ft 393 kts 308°
2026-05-07 15:24 33.98234 -112.25941 18429 ft 395 kts 308°
2026-05-07 15:24 33.99857 -112.28629 18891 ft 397 kts 308°
2026-05-07 15:25 34.01466 -112.31292 19296 ft 400 kts 309°
2026-05-07 15:25 34.03260 -112.33846 19677 ft 399 kts 318°
2026-05-07 15:25 34.05360 -112.36042 20054 ft 399 kts 323°
2026-05-07 15:25 34.07506 -112.38180 20434 ft 401 kts 323°
2026-05-07 15:26 34.09658 -112.40336 20792 ft 403 kts 323°
2026-05-07 15:26 34.11813 -112.42507 21151 ft 405 kts 323°
2026-05-07 15:26 34.13981 -112.44693 21501 ft 407 kts 323°
2026-05-07 15:26 34.16154 -112.46882 21888 ft 407 kts 323°
2026-05-07 15:27 34.18335 -112.49079 22198 ft 409 kts 323°
2026-05-07 15:27 34.20527 -112.51286 22526 ft 411 kts 323°
2026-05-07 15:27 34.22727 -112.53506 22847 ft 413 kts 323°
2026-05-07 15:27 34.24934 -112.55741 23180 ft 415 kts 323°
2026-05-07 15:28 34.27157 -112.57994 23522 ft 417 kts 323°
2026-05-07 15:28 34.29381 -112.60248 23861 ft 418 kts 323°
2026-05-07 15:28 34.31589 -112.62482 24195 ft 420 kts 323°
2026-05-07 15:28 34.33834 -112.64754 24525 ft 422 kts 323°
2026-05-07 15:29 34.36091 -112.67035 24844 ft 423 kts 323°
2026-05-07 15:29 34.38356 -112.69323 25168 ft 425 kts 323°
2026-05-07 15:29 34.40628 -112.71625 25479 ft 427 kts 323°
2026-05-07 15:29 34.42907 -112.73942 25790 ft 428 kts 323°
2026-05-07 15:30 34.45193 -112.76268 26138 ft 428 kts 323°
2026-05-07 15:30 34.47477 -112.78593 26439 ft 429 kts 323°
2026-05-07 15:30 34.49772 -112.80924 26737 ft 431 kts 323°
2026-05-07 15:30 34.52073 -112.83261 27016 ft 432 kts 323°
2026-05-07 15:31 34.54380 -112.85611 27281 ft 434 kts 323°
2026-05-07 15:31 34.56694 -112.87972 27549 ft 435 kts 323°
2026-05-07 15:31 34.59015 -112.90344 27810 ft 437 kts 323°
2026-05-07 15:31 34.61346 -112.92730 28078 ft 439 kts 323°
2026-05-07 15:32 34.65952 -112.97457 28184 ft 426 kts 323°
2026-05-07 15:32 34.70452 -113.02075 28192 ft 422 kts 323°
2026-05-07 15:33 34.74943 -113.06664 28183 ft 421 kts 323°
2026-05-07 15:33 34.79138 -113.11613 28203 ft 423 kts 317°
2026-05-07 15:34 34.83182 -113.16839 28193 ft 424 kts 316°
2026-05-07 15:34 34.87210 -113.22085 28193 ft 424 kts 317°
2026-05-07 15:35 34.91269 -113.27285 28192 ft 423 kts 317°
2026-05-07 15:35 34.95337 -113.32466 28187 ft 423 kts 317°
2026-05-07 15:36 34.99435 -113.37590 28181 ft 420 kts 322°
2026-05-07 15:36 35.03923 -113.42113 28176 ft 418 kts 324°
2026-05-07 15:37 35.08417 -113.46635 28171 ft 418 kts 324°
2026-05-07 15:37 35.12910 -113.51162 28165 ft 418 kts 324°
2026-05-07 15:38 35.17395 -113.55682 28157 ft 418 kts 324°
2026-05-07 15:38 35.21887 -113.60218 28151 ft 423 kts 323°
2026-05-07 15:39 35.24165 -113.62524 27696 ft 422 kts 323°
2026-05-07 15:39 35.26401 -113.64794 26586 ft 414 kts 323°
2026-05-07 15:39 35.28573 -113.67001 26245 ft 395 kts 323°
2026-05-07 15:39 35.30630 -113.69094 25827 ft 387 kts 323°
2026-05-07 15:40 35.32684 -113.71180 25346 ft 381 kts 323°
2026-05-07 15:40 35.34708 -113.73232 24912 ft 374 kts 323°
2026-05-07 15:40 35.36697 -113.75248 24478 ft 369 kts 323°
2026-05-07 15:40 35.38658 -113.77243 24049 ft 364 kts 323°
2026-05-07 15:41 35.40590 -113.79209 23625 ft 359 kts 323°
2026-05-07 15:41 35.42499 -113.81152 23200 ft 354 kts 323°
2026-05-07 15:41 35.44380 -113.83069 22781 ft 350 kts 323°
2026-05-07 15:41 35.46242 -113.84966 22363 ft 345 kts 323°
2026-05-07 15:42 35.48076 -113.86838 21945 ft 341 kts 323°
2026-05-07 15:42 35.49894 -113.88696 21531 ft 339 kts 323°
2026-05-07 15:42 35.51701 -113.90540 21109 ft 336 kts 323°
2026-05-07 15:42 35.53495 -113.92372 20694 ft 334 kts 323°
2026-05-07 15:43 35.55276 -113.94193 20276 ft 332 kts 323°
2026-05-07 15:43 35.57049 -113.96007 19846 ft 331 kts 323°
2026-05-07 15:43 35.58812 -113.97809 19423 ft 329 kts 323°
2026-05-07 15:43 35.60566 -113.99603 19013 ft 326 kts 323°
2026-05-07 15:44 35.61718 -114.00782 18745 ft 325 kts 323°
2026-05-07 15:44 35.63450 -114.02557 18324 ft 324 kts 323°
2026-05-07 15:44 35.65179 -114.04332 17825 ft 323 kts 323°
2026-05-07 15:44 35.66895 -114.06096 17443 ft 320 kts 323°
2026-05-07 15:45 35.68594 -114.07846 17063 ft 317 kts 323°
2026-05-07 15:45 35.70282 -114.09585 16643 ft 316 kts 323°
2026-05-07 15:45 35.71964 -114.11313 16269 ft 313 kts 323°
2026-05-07 15:45 35.73631 -114.13027 16176 ft 313 kts 323°
2026-05-07 15:46 35.76595 -114.16964 15793 ft 319 kts 303°
2026-05-07 15:46 35.77652 -114.19356 15466 ft 317 kts 301°
2026-05-07 15:46 35.78698 -114.21742 15171 ft 316 kts 301°
2026-05-07 15:47 35.79741 -114.24114 14864 ft 314 kts 301°
2026-05-07 15:47 35.80781 -114.26470 14538 ft 312 kts 301°
2026-05-07 15:47 35.81818 -114.28817 14230 ft 311 kts 301°
2026-05-07 15:47 35.82848 -114.31149 13927 ft 310 kts 301°
2026-05-07 15:48 35.83899 -114.33452 13620 ft 307 kts 306°
2026-05-07 15:48 35.85173 -114.35546 13321 ft 304 kts 310°
2026-05-07 15:48 35.86467 -114.37605 13018 ft 303 kts 310°
2026-05-07 15:48 35.87751 -114.39652 12736 ft 301 kts 310°
2026-05-07 15:49 35.89029 -114.41694 12449 ft 300 kts 310°
2026-05-07 15:49 35.90301 -114.43731 12135 ft 299 kts 309°
2026-05-07 15:49 35.91563 -114.45760 11844 ft 298 kts 309°
2026-05-07 15:49 35.92820 -114.47781 11569 ft 296 kts 309°
2026-05-07 15:50 35.94076 -114.49799 11285 ft 296 kts 309°
2026-05-07 15:50 35.95330 -114.51814 10965 ft 296 kts 309°
2026-05-07 15:50 35.96581 -114.53826 10673 ft 295 kts 309°
2026-05-07 15:50 35.97826 -114.55839 10401 ft 295 kts 308°
2026-05-07 15:51 35.99067 -114.57852 10136 ft 294 kts 308°
2026-05-07 15:51 36.00291 -114.59843 9866 ft 287 kts 308°
2026-05-07 15:51 36.01486 -114.61788 9587 ft 281 kts 308°
2026-05-07 15:51 36.02654 -114.63693 9314 ft 274 kts 308°
2026-05-07 15:52 36.03775 -114.65543 8992 ft 261 kts 303°
2026-05-07 15:52 36.04691 -114.67407 8756 ft 249 kts 301°
2026-05-07 15:52 36.05571 -114.69203 8469 ft 246 kts 301°
2026-05-07 15:52 36.06454 -114.70996 8256 ft 243 kts 301°
2026-05-07 15:53 36.07144 -114.72892 8020 ft 242 kts 284°
2026-05-07 15:53 36.07326 -114.74951 7706 ft 240 kts 270°
2026-05-07 15:53 36.07328 -114.77007 7570 ft 240 kts 270°
2026-05-07 15:53 36.07332 -114.79060 7324 ft 239 kts 270°
2026-05-07 15:54 36.07337 -114.81089 7017 ft 231 kts 270°
2026-05-07 15:54 36.07341 -114.83038 6693 ft 223 kts 270°
2026-05-07 15:54 36.07343 -114.84921 6391 ft 215 kts 270°
2026-05-07 15:54 36.07348 -114.86712 6127 ft 199 kts 270°
2026-05-07 15:55 36.07351 -114.88354 5869 ft 184 kts 270°
2026-05-07 15:55 36.07353 -114.89904 5615 ft 177 kts 270°
2026-05-07 15:55 36.07355 -114.91403 5385 ft 170 kts 270°
2026-05-07 15:55 36.07357 -114.92807 5176 ft 162 kts 270°
2026-05-07 15:56 36.07359 -114.94210 4967 ft 161 kts 271°
2026-05-07 15:56 36.07360 -114.95588 4753 ft 160 kts 270°
2026-05-07 15:56 36.07361 -114.96946 4536 ft 160 kts 270°
2026-05-07 15:56 36.07362 -114.98313 4325 ft 159 kts 270°
2026-05-07 15:57 36.07363 -114.99683 4111 ft 159 kts 270°
2026-05-07 15:57 36.07365 -115.01043 3900 ft 158 kts 270°
2026-05-07 15:57 36.07365 -115.02400 3691 ft 157 kts 270°
2026-05-07 15:57 36.07366 -115.03754 3482 ft 157 kts 270°
2026-05-07 15:58 36.07366 -115.05102 3269 ft 156 kts 270°
2026-05-07 15:58 36.07366 -115.06441 3064 ft 155 kts 270°
2026-05-07 15:58 36.07366 -115.07768 2860 ft 154 kts 270°
2026-05-07 15:58 36.07366 -115.09090 2660 ft 154 kts 270°
2026-05-07 15:59 36.07366 -115.10409 2457 ft 153 kts 270°
2026-05-07 15:59 36.07371 -115.11720 2312 ft 153 kts 270°
2026-05-07 15:59 36.07363 -115.13033 2142 ft 151 kts 270°
2026-05-07 15:59 36.07365 -115.14239 2126 ft 117 kts 270°
2026-05-07 16:00 36.07365 -115.14873 2124 ft 42 kts 270°
2026-05-07 16:00 36.07371 -115.15193 2118 ft 30 kts 276°
2026-05-07 16:00 36.07417 -115.15391 2122 ft 0 kts 295°
2026-05-07 16:00 36.07422 -115.15404 2123 ft 9 kts 295°
2026-05-07 16:01 36.07475 -115.15521 2122 ft 18 kts 300°
2026-05-07 16:01 36.07543 -115.15628 2125 ft 14 kts 315°
2026-05-07 16:01 36.07610 -115.15711 2124 ft 13 kts 314°
2026-05-07 16:01 36.07677 -115.15790 2123 ft 14 kts 322°
2026-05-07 16:02 36.07767 -115.15815 2124 ft 14 kts 17°
2026-05-07 16:02 36.07803 -115.15718 2124 ft 14 kts 86°
2026-05-07 16:02 36.07804 -115.15601 2125 ft 14 kts 90°
2026-05-07 16:02 36.07804 -115.15492 2127 ft 12 kts 90°
2026-05-07 16:03 36.07804 -115.15399 2129 ft 10 kts 90°
2026-05-07 16:03 36.07804 -115.15307 2128 ft 11 kts 90°
2026-05-07 16:03 36.07804 -115.15199 2126 ft 14 kts 89°
2026-05-07 16:03 36.07803 -115.15089 2125 ft 11 kts 93°
2026-05-07 16:04 36.07797 -115.14999 2127 ft 10 kts 95°
2026-05-07 16:04 36.07791 -115.14915 2126 ft 10 kts 94°
2026-05-07 16:04 36.07785 -115.14821 2126 ft 12 kts 94°
2026-05-07 16:04 36.07778 -115.14705 2120 ft 15 kts 95°
2026-05-07 16:05 36.07768 -115.14574 2119 ft 15 kts 96°
2026-05-07 16:05 36.07760 -115.14458 2121 ft 12 kts 94°
2026-05-07 16:05 36.07754 -115.14358 2121 ft 11 kts 93°
2026-05-07 16:05 36.07753 -115.14264 2120 ft 11 kts 90°
2026-05-07 16:06 36.07765 -115.14176 2119 ft 10 kts 51°
2026-05-07 16:06 36.07793 -115.14161 2120 ft 3 kts 12°
2026-05-07 16:06 36.07867 -115.14157 2118 ft 12 kts
2026-05-07 16:06 36.07907 -115.14086 2117 ft 10 kts 86°
2026-05-07 16:07 36.07910 -115.14062 2117 ft 0 kts 78°
2026-05-07 16:07 36.07920 -115.14045 2119 ft 7 kts 48°
2026-05-07 16:07 36.07961 -115.14016 2116 ft 5 kts 26°
2026-05-07 16:07 36.07973 -115.14008 2115 ft 0 kts 26°
2026-05-07 16:08 36.07977 -115.14006 2116 ft 1 kts 26°